Total_Precipitation_Accumulation
0.15 0.17 0.22 0.19 0.21 0.24 0.30 0.45 0.64 0.47 0.14 0.04 0.05 0.08 0.14 0.15 0.17 0.16 0.14 0.15 0.20 0.27 0.34 0.37 0.37 0.45 0.68 1.21 2.12 3.43 4.10 3.49 2.58 2.19 2.09 2.27 2.58 3.01
0.20 0.23 0.25 0.25 0.25 0.27 0.32 0.37 0.51 0.64 0.40 0.08 0.05 0.09 0.19 0.20 0.19 0.17 0.16 0.17 0.17 0.19 0.23 0.29 0.36 0.43 0.55 0.78 1.27 2.10 3.32 3.98 3.58 2.88 2.46 2.49 2.68 2.96
0.23 0.27 0.27 0.29 0.32 0.30 0.33 0.36 0.38 0.46 0.46 0.14 0.06 0.07 0.17 0.23 0.21 0.16 0.15 0.17 0.15 0.17 0.21 0.28 0.36 0.45 0.57 0.72 0.96 1.40 2.12 3.13 3.78 3.59 3.10 2.78 2.70 2.76
0.25 0.28 0.30 0.29 0.30 0.29 0.32 0.34 0.32 0.31 0.38 0.25 0.09 0.07 0.12 0.20 0.28 0.28 0.22 0.20 0.19 0.19 0.23 0.31 0.41 0.47 0.55 0.68 0.87 1.14 1.53 2.10 2.88 3.37 3.33 3.02 2.76 2.75
0.28 0.31 0.31 0.30 0.30 0.27 0.32 0.33 0.28 0.25 0.29 0.33 0.18 0.10 0.13 0.16 0.27 0.38 0.33 0.28 0.25 0.23 0.24 0.27 0.35 0.44 0.49 0.58 0.74 0.95 1.15 1.39 1.84 2.63 3.19 3.12 2.94 2.81
0.23 0.21 0.26 0.37 0.36 0.35 0.39 0.33 0.30 0.34 0.39 0.45 0.34 0.21 0.21 0.22 0.33 0.45 0.48 0.43 0.35 0.28 0.27 0.27 0.32 0.44 0.48 0.45 0.47 0.57 0.78 1.10 1.45 1.92 2.60 3.01 2.91 2.79
0.16 0.14 0.22 0.36 0.42 0.56 0.68 0.60 0.59 0.69 0.68 0.70 0.62 0.49 0.42 0.44 0.48 0.48 0.62 0.60 0.50 0.41 0.34 0.28 0.28 0.28 0.30 0.32 0.34 0.42 0.54 0.75 1.09 1.49 1.94 2.44 2.79 2.83
0.18 0.13 0.16 0.28 0.32 0.41 0.57 0.68 0.79 0.94 1.00 1.00 0.95 0.84 0.61 0.54 0.53 0.62 0.70 0.82 0.79 0.56 0.51 0.39 0.36 0.38 0.32 0.30 0.34 0.40 0.50 0.65 0.90 1.24 1.59 1.92 2.32 2.71
0.16 0.14 0.15 0.23 0.30 0.36 0.43 0.48 0.54 0.71 0.94 1.07 1.12 0.83 0.65 0.57 0.69 0.84 0.83 0.92 0.87 0.78 0.87 0.74 0.48 0.46 0.41 0.45 0.52 0.48 0.51 0.61 0.76 1.00 1.31 1.59 1.87 2.23
0.14 0.14 0.14 0.18 0.30 0.51 0.53 0.48 0.43 0.51 0.74 0.95 1.17 1.01 0.82 0.82 1.05 1.30 1.37 1.26 0.93 0.80 0.97 1.05 0.67 0.55 0.56 0.60 0.61 0.54 0.52 0.55 0.64 0.84 1.08 1.31 1.55 1.83
0.15 0.13 0.15 0.18 0.33 0.58 0.62 0.50 0.38 0.37 0.48 0.76 1.04 1.17 1.15 1.19 1.36 1.68 1.81 1.65 1.26 0.84 0.89 1.10 0.97 0.80 0.83 0.88 0.79 0.66 0.55 0.55 0.60 0.71 0.86 1.01 1.24 1.57
0.19 0.14 0.20 0.31 0.45 0.61 0.58 0.56 0.64 0.51 0.44 0.46 0.52 0.63 0.74 0.82 1.06 1.39 1.63 1.66 1.39 1.23 1.01 1.09 1.22 1.19 1.30 1.15 1.00 0.76 0.56 0.55 0.58 0.63 0.67 0.75 0.95 1.12
0.27 0.21 0.18 0.36 0.48 0.58 0.65 0.65 0.84 0.79 0.61 0.59 0.52 0.48 0.49 0.60 0.77 1.07 1.43 1.64 1.59 1.36 1.11 1.32 1.59 1.40 1.41 1.25 1.10 1.00 0.71 0.54 0.53 0.61 0.65 0.66 0.75 0.83
0.30 0.21 0.23 0.39 0.50 0.61 0.61 0.66 0.74 0.69 0.59 0.52 0.45 0.42 0.45 0.52 0.61 0.80 1.11 1.32 1.35 1.23 1.04 1.32 1.83 1.61 1.44 1.19 1.07 1.14 0.99 0.73 0.59 0.59 0.62 0.77 0.80 0.79
0.34 0.37 0.43 0.51 0.52 0.44 0.44 0.53 0.55 0.50 0.58 0.58 0.47 0.40 0.44 0.54 0.60 0.65 0.80 1.07 1.22 1.20 1.15 1.22 1.58 1.66 1.60 1.35 1.05 1.09 1.15 1.04 0.79 0.71 0.69 0.68 0.63 0.61
0.50 0.48 0.52 0.51 0.44 0.34 0.32 0.32 0.31 0.38 0.55 0.61 0.50 0.39 0.38 0.44 0.56 0.68 0.78 0.95 1.17 1.20 1.21 1.29 1.53 1.84 1.76 1.33 1.14 1.06 1.02 1.16 1.06 0.90 0.81 0.73 0.62 0.48
0.66 0.70 0.58 0.48 0.44 0.36 0.28 0.22 0.22 0.30 0.38 0.40 0.44 0.44 0.41 0.43 0.49 0.61 0.82 0.96 1.12 1.17 1.26 1.43 1.59 1.77 1.83 1.74 1.55 1.19 0.98 0.95 1.01 1.01 0.97 0.93 0.82 0.63
0.77 0.75 0.53 0.39 0.35 0.33 0.31 0.27 0.23 0.24 0.27 0.34 0.41 0.45 0.49 0.51 0.52 0.54 0.69 0.90 1.06 1.12 1.20 1.34 1.54 1.74 1.89 1.98 1.79 1.40 1.09 0.96 1.03 1.12 1.07 1.05 1.02 0.84
0.63 0.53 0.42 0.36 0.33 0.30 0.29 0.28 0.24 0.21 0.25 0.32 0.36 0.41 0.47 0.51 0.51 0.52 0.58 0.73 0.91 1.04 1.15 1.25 1.41 1.60 1.73 1.87 1.97 1.64 1.32 1.08 1.07 1.27 1.28 1.13 1.02 0.92
0.48 0.44 0.40 0.36 0.33 0.34 0.33 0.32 0.29 0.27 0.28 0.30 0.32 0.34 0.39 0.46 0.48 0.47 0.51 0.65 0.80 0.93 1.03 1.13 1.32 1.51 1.65 1.60 1.69 1.74 1.65 1.37 1.17 1.29 1.41 1.31 1.20 1.15
0.40 0.39 0.37 0.38 0.37 0.36 0.36 0.34 0.34 0.32 0.30 0.31 0.31 0.31 0.32 0.37 0.39 0.38 0.44 0.53 0.69 0.83 0.91 0.95 1.10 1.29 1.50 1.52 1.44 1.43 1.64 1.68 1.37 1.31 1.41 1.47 1.44 1.35
0.34 0.38 0.37 0.38 0.40 0.41 0.40 0.39 0.38 0.34 0.32 0.31 0.29 0.27 0.27 0.30 0.33 0.34 0.39 0.47 0.54 0.67 0.79 0.87 0.98 1.20 1.48 1.63 1.55 1.42 1.50 1.68 1.70 1.52 1.44 1.44 1.51 1.44
0.39 0.40 0.39 0.39 0.40 0.42 0.42 0.40 0.38 0.33 0.30 0.29 0.28 0.25 0.25 0.25 0.26 0.29 0.34 0.39 0.47 0.55 0.65 0.81 0.95 1.10 1.33 1.53 1.63 1.55 1.44 1.48 1.58 1.63 1.74 1.56 1.19 0.97